Regional Weather Roundup
Issued by NWS

Home | Current Version | Previous Version | Graphics & Text | Print | Product List | Glossary On
Versions: 1 2 3 4 5 6 7 8 9 10 11 12 13 14 15 16 17 18 19 20 21 22 23 24 25 26 27 28 29 30 31 32 33 34 35 36 37 38 39 40 41 42 43 44 45 46 47 48 49 50
000
ASUS43 KLSX 012357
RWRMO

WEATHER SUMMARY FOR MISSOURI
NATIONAL WEATHER SERVICE SPRINGFIELD MO
700 PM CDT TUE SEP 01 2015

NOTE: "FAIR" INDICATES FEW OR NO CLOUDS BELOW 12,000 FEET WITH NO
       SIGNIFICANT WEATHER AND/OR OBSTRUCTIONS TO VISIBILITY.
       CURRENT SKY AND/OR WEATHER CONDITIONS ARE NOT AVAILABLE FOR
       CHILLICOTHE AND FARMINGTON.

MOZ001>031-035>038-043-044-053-054-020100-
...NORTHERN AND WESTERN MISSOURI...

CITY           SKY/WX    TMP DP  RH WIND       PRES   REMARKS
KANSAS CTY INT PTCLDY    84  67  56 S8        29.99R
6HR MIN TEMP:  84; 6HR MAX TEMP:  91;

LEE`S SUMMIT   CLEAR     85  65  51 S9        30.00S
6HR MIN TEMP:  85; 6HR MAX TEMP:  89;

ST JOSEPH      CLEAR     85  69  58 S9        29.96S
6HR MIN TEMP:  85; 6HR MAX TEMP:  90;

CHILLICOTHE      N/A     86  70  58 S6        29.99S HX  90
6HR MIN TEMP:  86; 6HR MAX TEMP:  92;


$$
MOZ066>068-077>081-088>096-101>105-020100-
...SOUTHWEST MISSOURI...

CITY           SKY/WX    TMP DP  RH WIND       PRES   REMARKS
SPRINGFIELD    CLEAR     84  65  52 S10       30.05R
6HR MIN TEMP:  84; 6HR MAX TEMP:  88;

JOPLIN         CLEAR     83  65  54 S10       30.02S
6HR MIN TEMP:  83; 6HR MAX TEMP:  88;


$$
MOZ032>034-039>042-045>050-055>058-069>072-020100-
...CENTRAL MISSOURI...

CITY           SKY/WX    TMP DP  RH WIND       PRES   REMARKS
COLUMBIA       NOT AVBL
JEFFERSON CITY PTCLDY    83  69  62 CALM      30.02S
6HR MIN TEMP:  83; 6HR MAX TEMP:  92;

ROLLA          PTCLDY    82  69  64 S5        30.06R
6HR MIN TEMP:  82; 6HR MAX TEMP:  91;

SEDALIA        PTCLDY    86  68  54 SE8       30.02F
6HR MIN TEMP:  86; 6HR MAX TEMP:  93;


$$
MOZ051-052-059>065-020100-
...EAST CENTRAL MISSOURI...

CITY           SKY/WX    TMP DP  RH WIND       PRES   REMARKS
ST LOUIS INTL  PTCLDY    89  68  49 S8        30.05R HX  93
6HR MIN TEMP:  89; 6HR MAX TEMP:  93;


$$
MOZ072>076-082>087-097>100-106>115-020100-
...SOUTH CENTRAL AND SOUTHEAST MISSOURI...

CITY           SKY/WX    TMP DP  RH WIND       PRES   REMARKS
CAPE GIRARDEAU NOT AVBL
POPLAR BLUFF   PTCLDY    82  72  71 CALM      30.05R
6HR MIN TEMP:  82; 6HR MAX TEMP:  89;

WEST PLAINS    PTCLDY    82  71  69 SE3       30.10S
6HR MIN TEMP:  82; 6HR MAX TEMP:  87;


$$


USA.gov is the U.S. government's official web portal to all federal, state and local government web resources and services.